sat.trackr.live / text

‹ back to catalog

STARLINK-31398

NORAD 59415 · 2024-064T

PAYLOAD ACTIVE UNKNOWN

§ Identity

Operator
Country
US
Launch date
2024-04-05
Launch site
AFETR
Launch vehicle
Mass (kg)
RCS (m²)

Purposes: comms

External: N2YO · Heavens-Above · Gunter

§ Orbital elements

Epoch: 2026-05-24T23:24:18.728928Z

Period
94.27 min
Inclination
43.0010°
Eccentricity
0.0001334
Mean motion
15.27586489 rev/d
Perigee alt
482.1 km
Apogee alt
483.9 km
Semi-major
6,861.2 km
B*
1.7597e-4
RAAN
345.2654°
Arg perigee
277.5590°
Mean anomaly
82.5110°
Rev number
12,089

§ Raw data

STARLINK-313981 59415U 24064T   26144.97521677  .00004584  00000+0  17597-3 0  99932 59415  43.0010 345.2654 0001334 277.5590  82.5110 15.27586489120891

JSON: /api/v1/satellites/59415 · /tle

For live sub-satellite position, see the globe view (requires WebGL).

§ Visibility from observer

Set your observer location to see the next 7 days of passes ≥ 10°. The values pass through the URL so the page stays shareable.

No JS? Fill the form by hand. The geolocation button needs JavaScript.